ZSMUL FYWH-FNME

Flight info

Callsign ZSMUL
Flight time 2h 7m
Altitude 17000
Route VEDRY UT943 UNLOK
Aircraft DC6/M-SDFGRWY/S

Departure

Time 2026-04-27 16:53
Airport Hosea Kutako International Airport (FYWH)

Arrival

Time 2026-04-27 19:00
Airport Menongue Airport (FNME)
Time Latitude Longitude Altitude Speed Heading
2026-04-27 16:36 -22.48722 17.46052 5614 ft 0 kts 333°
2026-04-27 16:43 -22.48721 17.46052 5614 ft 0 kts 332°
2026-04-27 16:44 -22.48717 17.46049 5614 ft 1 kts 333°
2026-04-27 16:44 -22.48705 17.46043 5616 ft 2 kts 334°
2026-04-27 16:44 -22.48687 17.46034 5619 ft 3 kts 334°
2026-04-27 16:44 -22.48665 17.46022 5615 ft 4 kts 332°
2026-04-27 16:45 -22.48637 17.46010 5616 ft 5 kts 355°
2026-04-27 16:45 -22.48606 17.46026 5613 ft 6 kts 51°
2026-04-27 16:45 -22.48581 17.46075 5613 ft 9 kts 63°
2026-04-27 16:45 -22.48548 17.46146 5613 ft 12 kts 63°
2026-04-27 16:46 -22.48504 17.46239 5610 ft 16 kts 63°
2026-04-27 16:46 -22.48452 17.46356 5603 ft 19 kts 65°
2026-04-27 16:46 -22.48414 17.46445 5604 ft 20 kts 64°
2026-04-27 16:46 -22.48347 17.46591 5593 ft 23 kts 63°
2026-04-27 16:47 -22.48246 17.46807 5588 ft 25 kts 63°
2026-04-27 16:47 -22.48194 17.46920 5583 ft 24 kts 63°
2026-04-27 16:47 -22.48123 17.47075 5579 ft 21 kts 62°
2026-04-27 16:47 -22.48065 17.47203 5581 ft 17 kts 62°
2026-04-27 16:48 -22.48013 17.47316 5575 ft 17 kts 64°
2026-04-27 16:48 -22.47960 17.47428 5573 ft 17 kts 63°
2026-04-27 16:48 -22.47910 17.47542 5567 ft 17 kts 60°
2026-04-27 16:49 -22.47792 17.47793 5558 ft 20 kts 64°
2026-04-27 16:49 -22.47730 17.47910 5557 ft 12 kts 32°
2026-04-27 16:49 -22.47670 17.47906 5554 ft 6 kts 331°
2026-04-27 16:49 -22.47653 17.47893 5556 ft 0 kts 309°
2026-04-27 16:50 -22.47650 17.47889 5556 ft 3 kts 302°
2026-04-27 16:50 -22.47646 17.47842 5556 ft 8 kts 252°
2026-04-27 16:50 -22.47667 17.47794 5559 ft 12 kts 243°
2026-04-27 16:50 -22.47757 17.47599 5566 ft 47 kts 244°
2026-04-27 16:51 -22.47951 17.47176 5579 ft 79 kts 243°
2026-04-27 16:51 -22.48248 17.46538 5599 ft 108 kts 243°
2026-04-27 16:51 -22.48611 17.45755 5648 ft 124 kts 245°
2026-04-27 16:51 -22.49014 17.44881 5728 ft 136 kts 246°
2026-04-27 16:52 -22.49390 17.43894 5811 ft 147 kts 260°
2026-04-27 16:52 -22.49352 17.42771 5940 ft 155 kts 289°
2026-04-27 16:52 -22.48771 17.41767 5980 ft 166 kts 317°
2026-04-27 16:52 -22.47752 17.41157 6182 ft 170 kts 346°
2026-04-27 16:53 -22.46606 17.41099 6563 ft 166 kts
2026-04-27 16:53 -22.45417 17.41281 6624 ft 175 kts
2026-04-27 16:53 -22.44217 17.41515 6766 ft 176 kts
2026-04-27 16:53 -22.43008 17.41749 6922 ft 178 kts
2026-04-27 16:54 -22.41767 17.41977 7055 ft 181 kts
2026-04-27 16:54 -22.40515 17.42217 7160 ft 183 kts
2026-04-27 16:54 -22.39250 17.42464 7292 ft 185 kts
2026-04-27 16:54 -22.37994 17.42706 7402 ft 186 kts
2026-04-27 16:55 -22.36730 17.43033 7495 ft 189 kts 20°
2026-04-27 16:55 -22.35642 17.43829 7590 ft 190 kts 35°
2026-04-27 16:55 -22.34516 17.44579 7719 ft 189 kts 22°
2026-04-27 16:55 -22.33265 17.45024 7886 ft 189 kts 10°
2026-04-27 16:56 -22.31960 17.45091 8027 ft 187 kts 352°
2026-04-27 16:56 -22.30684 17.44910 8215 ft 187 kts 350°
2026-04-27 16:56 -22.29385 17.44733 8381 ft 188 kts 351°
2026-04-27 16:56 -22.28081 17.44569 8560 ft 189 kts 351°
2026-04-27 16:57 -22.26787 17.44404 8735 ft 189 kts 351°
2026-04-27 16:57 -22.25478 17.44237 8885 ft 190 kts 351°
2026-04-27 16:57 -22.24161 17.44069 9074 ft 190 kts 351°
2026-04-27 16:57 -22.22841 17.43905 9235 ft 191 kts 351°
2026-04-27 16:58 -22.21516 17.43735 9401 ft 191 kts 351°
2026-04-27 16:58 -22.20207 17.43571 9547 ft 191 kts 351°
2026-04-27 16:58 -22.18885 17.43404 9692 ft 191 kts 351°
2026-04-27 16:58 -22.17578 17.43238 9839 ft 191 kts 351°
2026-04-27 16:59 -22.16257 17.43072 9996 ft 190 kts 351°
2026-04-27 16:59 -22.14939 17.42905 10125 ft 190 kts 351°
2026-04-27 16:59 -22.13628 17.42741 10264 ft 191 kts 351°
2026-04-27 16:59 -22.12297 17.42572 10408 ft 192 kts 351°
2026-04-27 17:00 -22.10085 17.42293 10664 ft 193 kts 351°
2026-04-27 17:00 -22.08301 17.42069 10869 ft 193 kts 351°
2026-04-27 17:00 -22.06978 17.41900 11033 ft 194 kts 351°
2026-04-27 17:01 -22.05634 17.41730 11191 ft 194 kts 351°
2026-04-27 17:01 -22.04288 17.41562 11353 ft 194 kts 351°
2026-04-27 17:01 -22.02937 17.41390 11504 ft 195 kts 351°
2026-04-27 17:01 -22.01606 17.41223 11647 ft 195 kts 351°
2026-04-27 17:02 -22.00247 17.41051 11804 ft 196 kts 351°
2026-04-27 17:02 -21.98889 17.40882 11958 ft 196 kts 351°
2026-04-27 17:02 -21.97551 17.40711 12108 ft 196 kts 351°
2026-04-27 17:02 -21.96192 17.40541 12258 ft 196 kts 351°
2026-04-27 17:03 -21.94833 17.40370 12405 ft 196 kts 351°
2026-04-27 17:03 -21.93473 17.40197 12557 ft 196 kts 351°
2026-04-27 17:03 -21.92116 17.40028 12703 ft 196 kts 351°
2026-04-27 17:03 -21.90776 17.39859 12839 ft 196 kts 351°
2026-04-27 17:04 -21.89416 17.39688 12982 ft 196 kts 351°
2026-04-27 17:04 -21.88061 17.39517 13128 ft 196 kts 351°
2026-04-27 17:04 -21.86705 17.39347 13263 ft 196 kts 351°
2026-04-27 17:04 -21.85356 17.39176 13409 ft 197 kts 351°
2026-04-27 17:05 -21.83984 17.39005 13559 ft 198 kts 351°
2026-04-27 17:05 -21.82607 17.38830 13704 ft 199 kts 351°
2026-04-27 17:05 -21.81228 17.38658 13849 ft 199 kts 351°
2026-04-27 17:05 -21.79866 17.38486 13975 ft 200 kts 351°
2026-04-27 17:06 -21.78476 17.38312 14109 ft 200 kts 351°
2026-04-27 17:06 -21.77092 17.38138 14230 ft 200 kts 351°
2026-04-27 17:06 -21.75723 17.37966 14348 ft 200 kts 351°
2026-04-27 17:06 -21.74336 17.37792 14467 ft 200 kts 351°
2026-04-27 17:07 -21.72946 17.37618 14584 ft 200 kts 351°
2026-04-27 17:07 -21.71573 17.37445 14696 ft 200 kts 351°
2026-04-27 17:07 -21.70182 17.37270 14810 ft 200 kts 351°
2026-04-27 17:07 -21.68790 17.37096 14921 ft 200 kts 351°
2026-04-27 17:08 -21.67415 17.36923 15030 ft 201 kts 351°
2026-04-27 17:08 -21.66022 17.36749 15136 ft 201 kts 351°
2026-04-27 17:08 -21.64633 17.36574 15240 ft 201 kts 351°
2026-04-27 17:08 -21.63260 17.36402 15342 ft 201 kts 351°
2026-04-27 17:09 -21.61868 17.36226 15440 ft 201 kts 351°
2026-04-27 17:09 -21.60479 17.36055 15540 ft 201 kts 351°
2026-04-27 17:09 -21.59085 17.35878 15639 ft 201 kts 351°
2026-04-27 17:09 -21.57695 17.35706 15732 ft 201 kts 351°
2026-04-27 17:10 -21.56316 17.35532 15830 ft 202 kts 351°
2026-04-27 17:10 -21.54911 17.35356 15944 ft 204 kts 351°
2026-04-27 17:10 -21.53492 17.35178 16065 ft 205 kts 351°
2026-04-27 17:10 -21.52090 17.35003 16182 ft 205 kts 351°
2026-04-27 17:11 -21.50666 17.34824 16302 ft 206 kts 351°
2026-04-27 17:11 -21.47803 17.34466 16543 ft 206 kts 351°
2026-04-27 17:11 -21.46385 17.34289 16658 ft 207 kts 351°
2026-04-27 17:12 -21.43532 17.33932 16886 ft 207 kts 351°
2026-04-27 17:12 -21.42100 17.33753 16998 ft 207 kts 351°
2026-04-27 17:12 -21.40642 17.33570 16997 ft 214 kts 351°
2026-04-27 17:13 -21.39139 17.33382 17002 ft 219 kts 351°
2026-04-27 17:13 -21.37600 17.33190 17002 ft 223 kts 351°
2026-04-27 17:13 -21.36054 17.32997 16995 ft 223 kts 351°
2026-04-27 17:13 -21.34523 17.32807 16993 ft 223 kts 351°
2026-04-27 17:14 -21.32976 17.32613 16990 ft 223 kts 351°
2026-04-27 17:14 -21.31431 17.32421 16990 ft 224 kts 351°
2026-04-27 17:14 -21.29895 17.32228 16989 ft 224 kts 351°
2026-04-27 17:14 -21.28346 17.32035 16991 ft 224 kts 352°
2026-04-27 17:15 -21.26794 17.31842 16992 ft 224 kts 351°
2026-04-27 17:15 -21.25242 17.31648 16986 ft 224 kts 351°
2026-04-27 17:15 -21.23704 17.31456 16989 ft 224 kts 351°
2026-04-27 17:15 -21.22148 17.31263 16983 ft 225 kts 352°
2026-04-27 17:16 -21.20589 17.31068 16994 ft 225 kts 352°
2026-04-27 17:16 -21.19034 17.30874 16986 ft 225 kts 352°
2026-04-27 17:16 -21.17488 17.30681 16981 ft 225 kts 352°
2026-04-27 17:16 -21.15923 17.30487 16985 ft 225 kts 352°
2026-04-27 17:17 -21.14382 17.30295 16990 ft 225 kts 352°
2026-04-27 17:17 -21.12825 17.30100 16989 ft 225 kts 352°
2026-04-27 17:17 -21.11260 17.29906 16977 ft 225 kts 352°
2026-04-27 17:18 -21.08156 17.29519 16985 ft 225 kts 352°
2026-04-27 17:18 -21.06589 17.29325 16991 ft 226 kts 352°
2026-04-27 17:18 -21.05027 17.29130 16990 ft 226 kts 352°
2026-04-27 17:18 -21.03477 17.28938 16989 ft 226 kts 352°
2026-04-27 17:19 -21.01910 17.28743 16988 ft 226 kts 352°
2026-04-27 17:19 -21.00349 17.28548 16995 ft 226 kts 352°
2026-04-27 17:19 -20.98782 17.28354 16992 ft 226 kts 352°
2026-04-27 17:19 -20.97231 17.28161 16995 ft 228 kts 352°
2026-04-27 17:20 -20.95646 17.27965 16997 ft 229 kts 352°
2026-04-27 17:20 -20.94052 17.27766 16994 ft 231 kts 352°
2026-04-27 17:20 -20.92444 17.27567 16994 ft 233 kts 352°
2026-04-27 17:20 -20.90825 17.27365 16994 ft 234 kts 352°
2026-04-27 17:21 -20.89223 17.27167 16989 ft 236 kts 352°
2026-04-27 17:21 -20.87588 17.26964 16995 ft 237 kts 352°
2026-04-27 17:21 -20.85930 17.26759 16985 ft 238 kts 352°
2026-04-27 17:21 -20.84301 17.26556 16997 ft 239 kts 352°
2026-04-27 17:22 -20.82642 17.26351 16997 ft 240 kts 352°
2026-04-27 17:22 -20.80980 17.26144 17000 ft 241 kts 352°
2026-04-27 17:22 -20.79308 17.25937 16997 ft 241 kts 352°
2026-04-27 17:22 -20.77654 17.25730 16998 ft 242 kts 352°
2026-04-27 17:23 -20.75973 17.25522 16992 ft 243 kts 352°
2026-04-27 17:23 -20.74283 17.25312 16999 ft 243 kts 352°
2026-04-27 17:23 -20.72617 17.25106 16998 ft 244 kts 352°
2026-04-27 17:23 -20.70920 17.24894 16998 ft 245 kts 352°
2026-04-27 17:24 -20.69236 17.24686 16997 ft 245 kts 352°
2026-04-27 17:24 -20.67533 17.24474 17000 ft 245 kts 352°
2026-04-27 17:24 -20.65834 17.24264 17000 ft 246 kts 353°
2026-04-27 17:24 -20.64129 17.24052 17003 ft 246 kts 352°
2026-04-27 17:25 -20.62438 17.23842 16999 ft 247 kts 353°
2026-04-27 17:25 -20.60729 17.23631 17002 ft 247 kts 353°
2026-04-27 17:25 -20.59016 17.23418 16997 ft 247 kts 353°
2026-04-27 17:25 -20.57305 17.23207 17006 ft 247 kts 353°
2026-04-27 17:26 -20.55612 17.22996 17006 ft 248 kts 353°
2026-04-27 17:26 -20.53899 17.22785 17002 ft 248 kts 353°
2026-04-27 17:26 -20.52182 17.22572 17007 ft 248 kts 353°
2026-04-27 17:26 -20.50465 17.22359 17002 ft 248 kts 353°
2026-04-27 17:27 -20.48737 17.22146 17003 ft 248 kts 353°
2026-04-27 17:27 -20.47038 17.21934 17004 ft 249 kts 353°
2026-04-27 17:27 -20.45319 17.21723 17004 ft 249 kts 353°
2026-04-27 17:27 -20.43599 17.21509 17011 ft 249 kts 353°
2026-04-27 17:28 -20.41873 17.21296 17010 ft 249 kts 353°
2026-04-27 17:28 -20.40147 17.21083 17008 ft 249 kts 353°
2026-04-27 17:28 -20.36710 17.20658 17010 ft 250 kts 353°
2026-04-27 17:29 -20.34980 17.20444 17005 ft 250 kts 353°
2026-04-27 17:29 -20.33250 17.20231 17009 ft 250 kts 353°
2026-04-27 17:29 -20.31521 17.20016 17007 ft 250 kts 353°
2026-04-27 17:29 -20.29788 17.19803 17005 ft 250 kts 353°
2026-04-27 17:30 -20.28076 17.19591 17011 ft 250 kts 353°
2026-04-27 17:30 -20.24603 17.19163 17012 ft 250 kts 353°
2026-04-27 17:30 -20.22869 17.18950 17001 ft 250 kts 353°
2026-04-27 17:31 -20.21157 17.18738 17013 ft 251 kts 353°
2026-04-27 17:31 -20.19420 17.18524 17011 ft 251 kts 353°
2026-04-27 17:31 -20.17676 17.18309 17015 ft 251 kts 353°
2026-04-27 17:31 -20.15956 17.18097 17013 ft 251 kts 353°
2026-04-27 17:32 -20.14214 17.17882 17006 ft 251 kts 353°
2026-04-27 17:32 -20.10752 17.17457 17008 ft 251 kts 353°
2026-04-27 17:32 -20.09008 17.17241 17012 ft 251 kts 353°
2026-04-27 17:33 -20.07285 17.17029 17017 ft 251 kts 353°
2026-04-27 17:33 -20.05544 17.16814 17015 ft 251 kts 353°
2026-04-27 17:33 -20.03798 17.16600 17013 ft 251 kts 353°
2026-04-27 17:33 -20.02073 17.16388 17019 ft 251 kts 353°
2026-04-27 17:34 -20.00918 17.16245 17017 ft 251 kts 353°
2026-04-27 17:34 -19.99185 17.16032 17010 ft 250 kts 353°
2026-04-27 17:34 -19.96886 17.15750 17006 ft 249 kts 353°
2026-04-27 17:34 -19.95745 17.15610 17003 ft 249 kts 353°
2026-04-27 17:35 -19.94017 17.15397 17003 ft 248 kts 353°
2026-04-27 17:35 -19.92307 17.15187 17000 ft 247 kts 353°
2026-04-27 17:35 -19.90591 17.14976 17002 ft 247 kts 353°
2026-04-27 17:35 -19.88884 17.14767 17001 ft 246 kts 353°
2026-04-27 17:36 -19.87202 17.14560 16998 ft 245 kts 354°
2026-04-27 17:36 -19.85502 17.14352 17001 ft 245 kts 353°
2026-04-27 17:36 -19.83802 17.14142 17004 ft 245 kts 354°
2026-04-27 17:36 -19.82127 17.13938 16990 ft 244 kts 354°
2026-04-27 17:37 -19.80432 17.13729 16996 ft 244 kts 353°
2026-04-27 17:37 -19.78738 17.13522 16999 ft 244 kts 354°
2026-04-27 17:37 -19.77071 17.13317 17000 ft 243 kts 353°
2026-04-27 17:37 -19.75376 17.13110 16999 ft 243 kts 354°
2026-04-27 17:38 -19.73693 17.12902 16998 ft 243 kts 354°
2026-04-27 17:38 -19.72028 17.12699 16994 ft 243 kts 354°
2026-04-27 17:38 -19.70341 17.12492 16999 ft 243 kts 354°
2026-04-27 17:38 -19.68658 17.12286 16998 ft 243 kts 354°
2026-04-27 17:39 -19.66979 17.12080 16993 ft 243 kts 354°
2026-04-27 17:39 -19.65316 17.11877 16995 ft 242 kts 354°
2026-04-27 17:39 -19.63632 17.11670 16989 ft 242 kts 354°
2026-04-27 17:39 -19.61954 17.11465 16985 ft 242 kts 354°
2026-04-27 17:40 -19.60293 17.11261 16989 ft 242 kts 354°
2026-04-27 17:40 -19.58614 17.11057 16996 ft 242 kts 354°
2026-04-27 17:40 -19.56931 17.10850 16984 ft 242 kts 354°
2026-04-27 17:40 -19.55249 17.10645 16994 ft 242 kts 354°
2026-04-27 17:41 -19.53591 17.10442 16993 ft 242 kts 354°
2026-04-27 17:41 -19.51910 17.10237 16992 ft 243 kts 354°
2026-04-27 17:41 -19.50227 17.10030 16990 ft 243 kts 354°
2026-04-27 17:41 -19.48558 17.09827 16988 ft 243 kts 354°
2026-04-27 17:42 -19.46874 17.09621 16990 ft 243 kts 354°
2026-04-27 17:42 -19.45213 17.09419 16992 ft 243 kts 354°
2026-04-27 17:42 -19.43528 17.09212 16987 ft 243 kts 354°
2026-04-27 17:42 -19.41846 17.09007 16985 ft 243 kts 354°
2026-04-27 17:43 -19.40163 17.08801 16988 ft 243 kts 354°
2026-04-27 17:43 -19.38500 17.08599 16981 ft 243 kts 354°
2026-04-27 17:43 -19.36814 17.08393 16986 ft 243 kts 354°
2026-04-27 17:43 -19.35126 17.08187 16980 ft 243 kts 354°
2026-04-27 17:44 -19.33444 17.07982 16982 ft 243 kts 354°
2026-04-27 17:44 -19.31780 17.07779 16977 ft 243 kts 354°
2026-04-27 17:44 -19.30092 17.07573 16982 ft 243 kts 354°
2026-04-27 17:44 -19.28424 17.07370 16979 ft 244 kts 354°
2026-04-27 17:45 -19.26729 17.07163 16979 ft 244 kts 354°
2026-04-27 17:45 -19.25038 17.06958 16975 ft 244 kts 354°
2026-04-27 17:45 -19.23372 17.06754 16983 ft 244 kts 354°
2026-04-27 17:45 -19.21678 17.06549 16982 ft 244 kts 354°
2026-04-27 17:46 -19.19985 17.06341 16981 ft 244 kts 354°
2026-04-27 17:46 -19.18314 17.06139 16976 ft 244 kts 354°
2026-04-27 17:46 -19.16618 17.05931 16974 ft 244 kts 354°
2026-04-27 17:46 -19.14926 17.05727 16978 ft 244 kts 354°
2026-04-27 17:47 -19.13250 17.05529 16977 ft 244 kts 355°
2026-04-27 17:47 -19.12116 17.05398 16978 ft 244 kts 354°
2026-04-27 17:47 -19.09868 17.05132 16978 ft 244 kts 354°
2026-04-27 17:47 -19.08163 17.04932 16978 ft 245 kts 354°
2026-04-27 17:48 -19.06486 17.04733 16977 ft 245 kts 354°
2026-04-27 17:48 -19.04792 17.04535 16977 ft 245 kts 354°
2026-04-27 17:48 -19.03095 17.04335 16969 ft 245 kts 355°
2026-04-27 17:48 -19.01420 17.04138 16977 ft 245 kts 355°
2026-04-27 17:49 -18.99727 17.03938 16976 ft 245 kts 355°
2026-04-27 17:49 -18.98023 17.03738 16974 ft 245 kts 355°
2026-04-27 17:49 -18.96325 17.03538 16969 ft 245 kts 355°
2026-04-27 17:49 -18.94645 17.03341 16975 ft 245 kts 355°
2026-04-27 17:50 -18.92948 17.03141 16973 ft 245 kts 355°
2026-04-27 17:50 -18.89563 17.02743 16976 ft 245 kts 355°
2026-04-27 17:50 -18.87859 17.02543 16976 ft 245 kts 355°
2026-04-27 17:51 -18.86159 17.02343 16979 ft 245 kts 355°
2026-04-27 17:51 -18.84473 17.02145 16971 ft 246 kts 355°
2026-04-27 17:51 -18.82766 17.01945 16976 ft 246 kts 355°
2026-04-27 17:51 -18.81082 17.01747 16976 ft 245 kts 355°
2026-04-27 17:52 -18.79375 17.01547 16980 ft 246 kts 355°
2026-04-27 17:52 -18.77674 17.01346 16974 ft 246 kts 355°
2026-04-27 17:52 -18.75972 17.01148 16975 ft 246 kts 355°
2026-04-27 17:52 -18.74290 17.00949 16975 ft 246 kts 355°
2026-04-27 17:53 -18.72586 17.00751 16980 ft 246 kts 355°
2026-04-27 17:53 -18.70884 17.00550 16972 ft 246 kts 355°
2026-04-27 17:53 -18.69195 17.00353 16981 ft 246 kts 355°
2026-04-27 17:53 -18.67487 17.00152 16980 ft 246 kts 355°
2026-04-27 17:54 -18.65788 16.99953 16979 ft 246 kts 355°
2026-04-27 17:54 -18.64084 16.99754 16980 ft 246 kts 355°
2026-04-27 17:54 -18.62400 16.99556 16979 ft 246 kts 355°
2026-04-27 17:54 -18.60690 16.99356 16980 ft 246 kts 355°
2026-04-27 17:55 -18.58982 16.99156 16981 ft 246 kts 355°
2026-04-27 17:55 -18.57295 16.98959 16979 ft 246 kts 355°
2026-04-27 17:55 -18.55589 16.98758 16979 ft 246 kts 355°
2026-04-27 17:55 -18.53901 16.98561 16981 ft 246 kts 355°
2026-04-27 17:56 -18.52195 16.98361 16981 ft 246 kts 355°
2026-04-27 17:56 -18.50487 16.98162 16985 ft 246 kts 355°
2026-04-27 17:56 -18.48805 16.97965 16977 ft 246 kts 355°
2026-04-27 17:56 -18.47093 16.97764 16985 ft 246 kts 355°
2026-04-27 17:57 -18.45388 16.97566 16983 ft 246 kts 355°
2026-04-27 17:57 -18.43704 16.97368 16981 ft 246 kts 355°
2026-04-27 17:57 -18.41994 16.97169 16987 ft 246 kts 356°
2026-04-27 17:57 -18.40305 16.96971 16988 ft 246 kts 355°
2026-04-27 17:58 -18.38601 16.96772 16986 ft 246 kts 356°
2026-04-27 17:58 -18.36908 16.96574 16989 ft 246 kts 355°
2026-04-27 17:58 -18.35203 16.96376 16991 ft 246 kts 356°
2026-04-27 17:58 -18.33496 16.96176 16989 ft 246 kts 355°
2026-04-27 17:59 -18.31790 16.95977 16988 ft 246 kts 356°
2026-04-27 17:59 -18.30104 16.95780 16992 ft 246 kts 355°
2026-04-27 17:59 -18.28398 16.95581 16984 ft 246 kts 356°
2026-04-27 17:59 -18.26701 16.95384 16979 ft 246 kts 356°
2026-04-27 18:00 -18.24994 16.95184 16991 ft 246 kts 356°
2026-04-27 18:00 -18.23293 16.94986 16991 ft 246 kts 356°
2026-04-27 18:00 -18.21590 16.94787 16993 ft 246 kts 356°
2026-04-27 18:00 -18.19902 16.94591 16994 ft 246 kts 356°
2026-04-27 18:01 -18.18201 16.94391 16992 ft 246 kts 356°
2026-04-27 18:01 -18.16493 16.94193 16994 ft 246 kts 356°
2026-04-27 18:01 -18.14794 16.93995 16994 ft 246 kts 356°
2026-04-27 18:01 -18.13112 16.93799 16995 ft 246 kts 356°
2026-04-27 18:02 -18.11409 16.93600 16998 ft 246 kts 356°
2026-04-27 18:02 -18.09706 16.93403 16995 ft 246 kts 356°
2026-04-27 18:02 -18.08020 16.93206 16998 ft 246 kts 356°
2026-04-27 18:02 -18.06312 16.93008 16996 ft 246 kts 356°
2026-04-27 18:03 -18.04605 16.92808 16989 ft 246 kts 356°
2026-04-27 18:03 -18.02922 16.92613 16991 ft 246 kts 356°
2026-04-27 18:03 -18.01218 16.92414 16996 ft 246 kts 356°
2026-04-27 18:03 -17.99516 16.92217 16994 ft 245 kts 356°
2026-04-27 18:04 -17.97837 16.92021 16992 ft 245 kts 356°
2026-04-27 18:04 -17.96126 16.91823 16994 ft 245 kts 356°
2026-04-27 18:04 -17.94423 16.91624 16996 ft 245 kts 356°
2026-04-27 18:04 -17.92741 16.91430 16995 ft 245 kts 356°
2026-04-27 18:05 -17.91041 16.91231 16990 ft 245 kts 356°
2026-04-27 18:05 -17.89335 16.91034 16990 ft 245 kts 356°
2026-04-27 18:05 -17.87635 16.90835 16991 ft 245 kts 356°
2026-04-27 18:05 -17.85959 16.90642 16984 ft 245 kts 356°
2026-04-27 18:06 -17.84255 16.90444 16996 ft 245 kts 356°
2026-04-27 18:06 -17.82571 16.90248 16998 ft 245 kts 356°
2026-04-27 18:06 -17.80871 16.90051 16995 ft 245 kts 356°
2026-04-27 18:06 -17.79176 16.89854 16998 ft 245 kts 356°
2026-04-27 18:07 -17.77470 16.89656 16988 ft 245 kts 356°
2026-04-27 18:07 -17.75790 16.89461 16987 ft 245 kts 356°
2026-04-27 18:07 -17.74090 16.89264 16988 ft 245 kts 356°
2026-04-27 18:07 -17.72390 16.89067 16990 ft 245 kts 356°
2026-04-27 18:08 -17.70706 16.88873 16990 ft 245 kts 356°
2026-04-27 18:08 -17.69008 16.88675 16985 ft 245 kts 356°
2026-04-27 18:08 -17.67305 16.88478 16993 ft 245 kts 356°
2026-04-27 18:08 -17.65606 16.88281 16996 ft 245 kts 356°
2026-04-27 18:09 -17.63908 16.88084 16996 ft 245 kts 356°
2026-04-27 18:09 -17.62232 16.87890 16983 ft 245 kts 356°
2026-04-27 18:09 -17.60529 16.87693 16996 ft 245 kts 356°
2026-04-27 18:09 -17.58832 16.87497 16982 ft 245 kts 356°
2026-04-27 18:10 -17.57153 16.87302 16996 ft 245 kts 356°
2026-04-27 18:10 -17.55449 16.87105 16994 ft 245 kts 356°
2026-04-27 18:10 -17.53750 16.86908 16996 ft 245 kts 356°
2026-04-27 18:10 -17.52052 16.86712 16988 ft 245 kts 356°
2026-04-27 18:11 -17.50374 16.86518 16991 ft 245 kts 356°
2026-04-27 18:11 -17.48676 16.86321 16990 ft 245 kts 356°
2026-04-27 18:11 -17.46982 16.86126 16986 ft 245 kts 356°
2026-04-27 18:11 -17.45305 16.85931 16993 ft 245 kts 356°
2026-04-27 18:12 -17.43606 16.85736 16994 ft 245 kts 356°
2026-04-27 18:12 -17.41910 16.85539 16993 ft 245 kts 356°
2026-04-27 18:12 -17.40214 16.85344 16993 ft 245 kts 356°
2026-04-27 18:12 -17.38536 16.85367 16966 ft 240 kts 15°
2026-04-27 18:13 -17.36981 16.85878 16996 ft 236 kts 23°
2026-04-27 18:13 -17.35419 16.86441 16994 ft 237 kts 21°
2026-04-27 18:13 -17.33838 16.86946 16993 ft 237 kts 20°
2026-04-27 18:13 -17.32252 16.87446 16986 ft 237 kts 20°
2026-04-27 18:14 -17.30691 16.87948 16991 ft 238 kts 20°
2026-04-27 18:14 -17.29102 16.88460 16995 ft 238 kts 20°
2026-04-27 18:14 -17.27529 16.88967 16995 ft 238 kts 20°
2026-04-27 18:14 -17.25944 16.89476 16983 ft 238 kts 20°
2026-04-27 18:15 -17.24354 16.89987 16992 ft 238 kts 20°
2026-04-27 18:15 -17.22766 16.90498 16987 ft 238 kts 20°
2026-04-27 18:15 -17.21190 16.91004 16991 ft 238 kts 20°
2026-04-27 18:15 -17.19597 16.91516 16995 ft 238 kts 20°
2026-04-27 18:16 -17.18006 16.92026 16995 ft 239 kts 20°
2026-04-27 18:16 -17.16432 16.92533 16996 ft 239 kts 20°
2026-04-27 18:16 -17.14840 16.93043 16996 ft 239 kts 20°
2026-04-27 18:16 -17.13249 16.93555 16987 ft 239 kts 20°
2026-04-27 18:17 -17.11677 16.94059 16983 ft 239 kts 20°
2026-04-27 18:17 -17.10078 16.94573 16984 ft 239 kts 20°
2026-04-27 18:17 -17.08482 16.95084 16982 ft 239 kts 20°
2026-04-27 18:17 -17.06907 16.95590 16996 ft 239 kts 20°
2026-04-27 18:18 -17.05305 16.96104 16997 ft 239 kts 20°
2026-04-27 18:18 -17.03737 16.96607 16991 ft 239 kts 20°
2026-04-27 18:18 -17.02145 16.97117 16993 ft 239 kts 20°
2026-04-27 18:18 -17.00554 16.97627 16993 ft 239 kts 20°
2026-04-27 18:19 -16.98960 16.98138 16991 ft 239 kts 20°
2026-04-27 18:19 -16.97384 16.98644 16994 ft 239 kts 20°
2026-04-27 18:19 -16.95788 16.99155 16992 ft 239 kts 20°
2026-04-27 18:19 -16.94189 16.99667 16993 ft 239 kts 20°
2026-04-27 18:20 -16.92618 17.00170 16996 ft 239 kts 20°
2026-04-27 18:20 -16.91021 17.00682 16995 ft 239 kts 20°
2026-04-27 18:20 -16.89432 17.01190 16997 ft 239 kts 20°
2026-04-27 18:20 -16.87837 17.01702 16994 ft 239 kts 20°
2026-04-27 18:21 -16.86263 17.02204 16995 ft 239 kts 20°
2026-04-27 18:21 -16.84664 17.02717 16985 ft 239 kts 21°
2026-04-27 18:21 -16.83088 17.03221 16984 ft 239 kts 21°
2026-04-27 18:21 -16.81493 17.03732 16995 ft 239 kts 21°
2026-04-27 18:22 -16.79902 17.04240 16984 ft 239 kts 21°
2026-04-27 18:22 -16.78309 17.04750 16993 ft 239 kts 21°
2026-04-27 18:22 -16.76711 17.05260 16989 ft 239 kts 21°
2026-04-27 18:22 -16.75136 17.05765 16982 ft 239 kts 21°
2026-04-27 18:23 -16.73538 17.06275 16997 ft 239 kts 21°
2026-04-27 18:23 -16.71941 17.06786 16985 ft 239 kts 21°
2026-04-27 18:23 -16.70884 17.07123 16984 ft 239 kts 21°
2026-04-27 18:23 -16.68768 17.07799 16991 ft 240 kts 21°
2026-04-27 18:24 -16.67170 17.08310 16987 ft 240 kts 21°
2026-04-27 18:24 -16.66094 17.08653 16993 ft 240 kts 21°
2026-04-27 18:24 -16.64518 17.09157 16991 ft 240 kts 21°
2026-04-27 18:24 -16.62921 17.09666 16982 ft 240 kts 21°
2026-04-27 18:25 -16.61322 17.10177 16988 ft 240 kts 21°
2026-04-27 18:25 -16.59720 17.10688 16983 ft 240 kts 21°
2026-04-27 18:25 -16.58141 17.11192 16993 ft 240 kts 21°
2026-04-27 18:25 -16.56540 17.11703 16992 ft 240 kts 21°
2026-04-27 18:26 -16.54943 17.12213 16983 ft 240 kts 21°
2026-04-27 18:26 -16.53363 17.12717 16990 ft 240 kts 21°
2026-04-27 18:26 -16.51760 17.13227 16992 ft 239 kts 21°
2026-04-27 18:26 -16.50166 17.13736 16992 ft 239 kts 21°
2026-04-27 18:27 -16.48566 17.14246 16988 ft 239 kts 21°
2026-04-27 18:27 -16.46987 17.14749 16988 ft 239 kts 21°
2026-04-27 18:27 -16.45389 17.15258 16996 ft 239 kts 21°
2026-04-27 18:27 -16.43788 17.15769 16994 ft 239 kts 21°
2026-04-27 18:28 -16.42211 17.16270 16986 ft 239 kts 21°
2026-04-27 18:28 -16.40615 17.16779 16987 ft 239 kts 21°
2026-04-27 18:28 -16.39016 17.17289 16995 ft 239 kts 21°
2026-04-27 18:28 -16.37415 17.17798 16986 ft 240 kts 21°
2026-04-27 18:29 -16.35837 17.18300 16986 ft 240 kts 21°
2026-04-27 18:29 -16.34240 17.18809 16992 ft 240 kts 21°
2026-04-27 18:29 -16.32643 17.19317 16998 ft 240 kts 21°
2026-04-27 18:29 -16.31064 17.19820 16992 ft 240 kts 21°
2026-04-27 18:30 -16.29464 17.20328 16990 ft 240 kts 21°
2026-04-27 18:30 -16.27861 17.20838 16991 ft 240 kts 21°
2026-04-27 18:30 -16.26280 17.21341 16992 ft 239 kts 21°
2026-04-27 18:30 -16.24680 17.21850 16992 ft 239 kts 21°
2026-04-27 18:31 -16.23077 17.22359 16995 ft 239 kts 21°
2026-04-27 18:31 -16.21503 17.22860 16993 ft 239 kts 21°
2026-04-27 18:31 -16.19902 17.23369 16993 ft 239 kts 21°
2026-04-27 18:31 -16.18300 17.23878 16986 ft 239 kts 21°
2026-04-27 18:32 -16.16725 17.24378 16999 ft 239 kts 21°
2026-04-27 18:32 -16.15134 17.24884 16991 ft 239 kts 21°
2026-04-27 18:32 -16.13538 17.25390 16994 ft 239 kts 21°
2026-04-27 18:32 -16.11938 17.25898 16995 ft 239 kts 21°
2026-04-27 18:33 -16.10343 17.26405 16987 ft 239 kts 21°
2026-04-27 18:33 -16.08764 17.26906 16990 ft 239 kts 21°
2026-04-27 18:33 -16.07160 17.27415 16993 ft 239 kts 21°
2026-04-27 18:33 -16.05564 17.27921 16997 ft 239 kts 21°
2026-04-27 18:34 -16.03980 17.28425 16989 ft 239 kts 21°
2026-04-27 18:34 -16.02383 17.28930 16996 ft 239 kts 21°
2026-04-27 18:34 -16.00790 17.29436 16998 ft 239 kts 21°
2026-04-27 18:34 -15.99216 17.29935 16994 ft 239 kts 21°
2026-04-27 18:35 -15.97619 17.30441 16988 ft 239 kts 21°
2026-04-27 18:35 -15.96022 17.30947 16990 ft 239 kts 21°
2026-04-27 18:35 -15.94424 17.31454 16988 ft 239 kts 21°
2026-04-27 18:35 -15.92841 17.31955 16987 ft 239 kts 21°
2026-04-27 18:36 -15.91242 17.32462 16987 ft 239 kts 21°
2026-04-27 18:36 -15.89641 17.32970 16991 ft 239 kts 21°
2026-04-27 18:36 -15.88064 17.33469 17000 ft 239 kts 21°
2026-04-27 18:36 -15.86465 17.33976 16987 ft 239 kts 21°
2026-04-27 18:37 -15.84866 17.34481 16984 ft 239 kts 21°
2026-04-27 18:37 -15.83290 17.34980 16993 ft 239 kts 21°
2026-04-27 18:37 -15.81693 17.35486 16990 ft 239 kts 21°
2026-04-27 18:37 -15.80094 17.35992 16996 ft 239 kts 21°
2026-04-27 18:38 -15.78497 17.36497 16997 ft 239 kts 21°
2026-04-27 18:38 -15.76919 17.36997 16991 ft 239 kts 21°
2026-04-27 18:38 -15.75326 17.37500 16991 ft 239 kts 21°
2026-04-27 18:38 -15.73719 17.38009 16993 ft 239 kts 21°
2026-04-27 18:39 -15.72135 17.38509 16999 ft 239 kts 21°
2026-04-27 18:39 -15.70535 17.39016 16999 ft 240 kts 21°
2026-04-27 18:39 -15.68940 17.39520 17001 ft 240 kts 21°
2026-04-27 18:39 -15.67343 17.40024 16997 ft 240 kts 21°
2026-04-27 18:40 -15.65765 17.40524 16990 ft 240 kts 21°
2026-04-27 18:40 -15.64164 17.41029 16991 ft 240 kts 21°
2026-04-27 18:40 -15.62565 17.41534 16995 ft 240 kts 21°
2026-04-27 18:40 -15.60965 17.42040 16992 ft 240 kts 21°
2026-04-27 18:41 -15.59382 17.42539 17001 ft 240 kts 21°
2026-04-27 18:41 -15.57781 17.43045 16998 ft 240 kts 21°
2026-04-27 18:41 -15.56181 17.43550 16999 ft 240 kts 21°
2026-04-27 18:41 -15.54580 17.44056 17002 ft 240 kts 21°
2026-04-27 18:42 -15.53002 17.44553 17008 ft 240 kts 21°
2026-04-27 18:42 -15.51919 17.44895 17011 ft 240 kts 21°
2026-04-27 18:42 -15.49795 17.45565 17011 ft 240 kts 21°
2026-04-27 18:42 -15.48195 17.46070 17013 ft 240 kts 21°
2026-04-27 18:43 -15.46590 17.46576 17011 ft 240 kts 21°
2026-04-27 18:43 -15.45004 17.47077 17009 ft 241 kts 21°
2026-04-27 18:43 -15.43395 17.47583 17006 ft 240 kts 21°
2026-04-27 18:43 -15.41790 17.48090 17004 ft 240 kts 21°
2026-04-27 18:44 -15.40204 17.48590 17009 ft 241 kts 21°
2026-04-27 18:44 -15.38598 17.49096 17011 ft 241 kts 20°
2026-04-27 18:44 -15.36990 17.49603 17009 ft 241 kts 20°
2026-04-27 18:44 -15.35403 17.50102 17015 ft 241 kts 20°
2026-04-27 18:45 -15.33792 17.50610 17007 ft 241 kts 20°
2026-04-27 18:45 -15.32181 17.51118 17006 ft 241 kts 20°
2026-04-27 18:45 -15.30586 17.51619 17007 ft 241 kts 20°
2026-04-27 18:45 -15.28976 17.52127 17006 ft 241 kts 20°
2026-04-27 18:46 -15.27365 17.52633 17008 ft 241 kts 20°
2026-04-27 18:46 -15.25771 17.53136 17013 ft 241 kts 20°
2026-04-27 18:46 -15.24161 17.53642 17014 ft 241 kts 20°
2026-04-27 18:46 -15.22553 17.54148 17016 ft 241 kts 20°
2026-04-27 18:47 -15.20960 17.54649 17011 ft 241 kts 20°
2026-04-27 18:47 -15.19352 17.55155 17014 ft 241 kts 20°
2026-04-27 18:47 -15.17739 17.55662 16979 ft 243 kts 20°
2026-04-27 18:47 -15.16095 17.56181 16655 ft 250 kts 19°
2026-04-27 18:48 -15.14395 17.56715 16296 ft 259 kts 19°
2026-04-27 18:48 -15.12671 17.57256 15966 ft 264 kts 19°
2026-04-27 18:48 -15.10889 17.57816 15647 ft 268 kts 18°
2026-04-27 18:48 -15.09085 17.58382 15342 ft 272 kts 18°
2026-04-27 18:49 -15.07267 17.58954 15053 ft 274 kts 18°
2026-04-27 18:49 -15.05421 17.59533 14661 ft 280 kts 17°
2026-04-27 18:49 -15.03560 17.60119 14293 ft 284 kts 17°
2026-04-27 18:49 -15.01647 17.60718 13938 ft 288 kts 17°
2026-04-27 18:50 -14.99714 17.61325 13540 ft 290 kts 17°
2026-04-27 18:50 -14.97796 17.61927 13158 ft 292 kts 17°
2026-04-27 18:50 -14.95843 17.62540 12780 ft 293 kts 17°
2026-04-27 18:50 -14.93885 17.63154 12399 ft 293 kts 17°
2026-04-27 18:51 -14.91949 17.63762 12036 ft 294 kts 17°
2026-04-27 18:51 -14.89988 17.64376 11679 ft 294 kts 18°
2026-04-27 18:51 -14.88020 17.64994 11229 ft 297 kts 18°
2026-04-27 18:51 -14.86051 17.65594 10789 ft 299 kts 15°
2026-04-27 18:52 -14.83965 17.65745 10297 ft 304 kts 356°
2026-04-27 18:52 -14.81914 17.65166 9820 ft 308 kts 337°
2026-04-27 18:52 -14.80123 17.63921 9314 ft 311 kts 319°
2026-04-27 18:53 -14.77037 17.60818 8430 ft 310 kts 320°
2026-04-27 18:53 -14.75295 17.59506 7991 ft 310 kts 327°
2026-04-27 18:53 -14.73513 17.58283 7578 ft 310 kts 326°
2026-04-27 18:53 -14.71781 17.56970 7162 ft 307 kts 323°
2026-04-27 18:54 -14.70097 17.55640 6749 ft 302 kts 323°
2026-04-27 18:54 -14.68411 17.54356 6315 ft 299 kts 324°
2026-04-27 18:54 -14.66756 17.53126 6270 ft 282 kts 326°
2026-04-27 18:54 -14.65056 17.52327 6253 ft 264 kts 347°
2026-04-27 18:55 -14.63284 17.52255 6264 ft 247 kts 11°
2026-04-27 18:55 -14.61703 17.52788 6273 ft 233 kts 29°
2026-04-27 18:55 -14.60330 17.53602 6275 ft 223 kts 33°
2026-04-27 18:55 -14.59089 17.54482 6261 ft 213 kts 47°
2026-04-27 18:56 -14.58354 17.55753 6268 ft 202 kts 76°
2026-04-27 18:56 -14.58234 17.57147 6268 ft 190 kts 97°
2026-04-27 18:56 -14.58620 17.58406 6270 ft 180 kts 119°
2026-04-27 18:56 -14.59219 17.59494 6273 ft 172 kts 118°
2026-04-27 18:57 -14.59769 17.60569 6272 ft 165 kts 118°
2026-04-27 18:57 -14.60307 17.61594 6273 ft 158 kts 118°
2026-04-27 18:57 -14.60813 17.62569 6272 ft 153 kts 118°
2026-04-27 18:57 -14.61311 17.63519 6267 ft 147 kts 118°
2026-04-27 18:58 -14.61788 17.64426 6270 ft 141 kts 119°
2026-04-27 18:58 -14.62093 17.65006 6264 ft 136 kts 118°
2026-04-27 18:58 -14.62673 17.66113 6337 ft 126 kts 119°
2026-04-27 18:58 -14.63119 17.66932 6118 ft 143 kts 119°
2026-04-27 18:59 -14.63604 17.67873 5803 ft 155 kts 118°
2026-04-27 18:59 -14.64095 17.68837 5412 ft 141 kts 119°
2026-04-27 18:59 -14.64549 17.69684 4996 ft 129 kts 119°
2026-04-27 18:59 -14.64968 17.70489 4717 ft 125 kts 118°
2026-04-27 19:00 -14.65339 17.71196 4671 ft 102 kts 118°
2026-04-27 19:00 -14.65630 17.71745 4674 ft 64 kts 118°
2026-04-27 19:00 -14.65757 17.72005 4674 ft 20 kts 108°
2026-04-27 19:00 -14.65768 17.72034 4674 ft 1 kts 152°
2026-04-27 19:01 -14.65782 17.72030 4673 ft 3 kts 232°
2026-04-27 19:01 -14.65777 17.72003 4674 ft 6 kts 299°
2026-04-27 19:01 -14.65765 17.71949 4675 ft 9 kts 262°
2026-04-27 19:01 -14.65785 17.71878 4675 ft 11 kts 253°
2026-04-27 19:02 -14.65811 17.71788 4674 ft 14 kts 255°
2026-04-27 19:02 -14.65806 17.71715 4674 ft 4 kts 270°
2026-04-27 19:02 -14.65809 17.71698 4674 ft 1 kts 250°
2026-04-27 19:02 -14.65814 17.71685 4674 ft 4 kts 250°
2026-04-27 19:03 -14.65824 17.71649 4673 ft 5 kts 253°
2026-04-27 19:03 -14.65825 17.71647 4673 ft 0 kts 254°